GW4885 Weather Reports


Display with metric or nautical units.
time (UTC)temp
F
wind
direction
speed
MPH
gust
MPH
rain 1hr
in
rain 24hr
in
rain mn
in
humidity
%
barometer
mb
20260508072834 33 123 0.0 0.0 0.00 0.00 0.00 97 1016.7
20260508072330 33 127 1.0 2.0 0.00 0.00 0.00 96 1016.8
20260508071828 33 9 0.0 0.0 0.00 0.00 0.00 95 1016.7
20260508071326 33 149 1.0 1.0 0.00 0.00 0.00 96 1016.8
20260508070823 33 333 0.0 1.0 0.00 0.00 0.00 95 1016.8
20260508070322 34 148 1.0 1.0 0.00 0.00 0.00 97 1017.0
20260508065819 33 148 1.0 1.0 0.00 0.00 0.00 97 1017.0
20260508065317 33 270 2.0 4.0 0.00 0.00 0.00 96 1016.8
20260508064814 33 156 0.0 1.0 0.00 0.00 0.00 96 1016.7
20260508064312 33 295 0.0 2.0 0.00 0.00 0.00 96 1017.0
20260508063809 33 151 0.0 0.0 0.00 0.00 0.00 96 1017.0
20260508063307 33 198 0.0 0.0 0.00 0.00 0.00 96 1017.1
20260508062804 33 294 0.0 0.0 0.00 0.00 0.00 95 1017.0
20260508062305 33 294 0.0 0.0 0.00 0.00 0.00 95 1017.0
20260508061758 34 163 0.0 1.0 0.00 0.00 0.00 96 1017.0
20260508061255 34 197 0.0 0.0 0.00 0.00 0.00 95 1016.8
20260508060752 34 288 0.0 2.0 0.00 0.00 0.00 95 1016.7
20260508060250 34 275 0.0 2.0 0.00 0.00 0.00 95 1016.7
20260508055745 34 294 0.0 0.0 0.00 0.00 0.00 95 1016.5
20260508055242 34 158 0.0 1.0 0.00 0.00 0.00 95 1016.7
20260508054739 34 142 1.0 1.0 0.00 0.00 0.00 95 1016.7
20260508054237 34 303 0.0 0.0 0.00 0.00 0.00 93 1016.7
20260508053734 35 304 0.0 2.0 0.00 0.00 0.00 93 1016.7
20260508053231 35 108 0.0 0.0 0.00 0.00 0.00 93 1016.8
20260508052728 35 109 0.0 1.0 0.00 0.00 0.00 93 1016.7
20260508052225 35 238 0.0 2.0 0.00 0.00 0.00 93 1016.6
20260508051721 35 196 0.0 0.0 0.00 0.00 0.00 92 1016.8
20260508051217 35 141 1.0 1.0 0.00 0.00 0.00 91 1016.6
20260508050714 36 97 0.0 1.0 0.00 0.00 0.00 91 1016.6
20260508050212 36 163 0.0 1.0 0.00 0.00 0.00 93 1016.6
20260508045712 36 139 1.0 1.0 0.00 0.00 0.00 92 1016.7
20260508045210 36 299 1.0 2.0 0.00 0.00 0.00 93 1016.5
20260508044707 36 89 1.0 3.0 0.00 0.00 0.00 90 1016.6
20260508044203 36 136 0.0 0.0 0.00 0.00 0.00 91 1016.7
20260508043659 37 151 0.0 0.0 0.00 0.00 0.00 90 1016.4
20260508043158 37 183 0.0 0.0 0.00 0.00 0.00 90 1016.7
20260508042654 37 153 0.0 1.0 0.00 0.00 0.00 89 1016.6
20260508042151 37 138 1.0 1.0 0.00 0.00 0.00 90 1016.5
20260508041647 37 144 1.0 1.0 0.00 0.00 0.00 90 1016.5
20260508041144 37 150 0.0 1.0 0.00 0.00 0.00 91 1016.8
20260508040641 37 161 0.0 0.0 0.00 0.00 0.00 90 1016.3
20260508040138 38 189 0.0 0.0 0.00 0.01 0.01 90 1016.5
20260508035636 39 283 0.0 0.0 0.00 0.01 0.01 87 1016.4
20260508035133 39 141 0.0 0.0 0.00 0.01 0.01 84 1016.3
20260508034630 40 119 0.0 0.0 0.00 0.01 0.01 84 1016.3
20260508034127 41 66 1.0 1.0 0.00 0.01 0.01 80 1016.4
20260508033624 41 143 0.0 0.0 0.00 0.01 0.01 75 1016.3
20260508033122 41 103 0.0 1.0 0.00 0.01 0.01 80 1016.3
20260508032618 42 99 0.0 1.0 0.00 0.01 0.01 76 1016.0
20260508032116 41 128 0.0 0.0 0.00 0.01 0.01 78 1016.0
20260508031613 41 151 1.0 2.0 0.00 0.01 0.01 82 1016.0
20260508031108 42 132 2.0 2.0 0.00 0.01 0.01 83 1016.1
20260508030605 44 178 0.0 0.0 0.00 0.01 0.01 72 1016.0
20260508030104 42 295 2.0 2.0 0.00 0.01 0.01 73 1015.9
20260508025559 43 146 0.0 1.0 0.00 0.01 0.01 75 1016.0
20260508025057 43 148 0.0 0.0 0.00 0.01 0.01 74 1015.7
20260508024552 44 148 0.0 0.0 0.00 0.01 0.01 74 1015.7
20260508024050 46 291 0.0 0.0 0.00 0.01 0.01 66 1015.7
20260508023546 47 298 0.0 2.0 0.00 0.01 0.01 64 1015.8
20260508023044 44 289 2.0 6.0 0.00 0.01 0.01 69 1015.6
20260508022539 43 164 0.0 0.0 0.00 0.01 0.01 79 1015.5
20260508022037 44 165 0.0 0.0 0.00 0.01 0.01 77 1015.5
20260508021532 45 187 0.0 0.0 0.00 0.01 0.01 75 1015.6
20260508021028 45 284 0.0 0.0 0.00 0.01 0.01 68 1015.6
20260508020526 46 287 0.0 0.0 0.00 0.01 0.01 68 1015.3
20260508020024 46 200 0.0 0.0 0.00 0.01 0.01 72 1015.3
20260508015521 47 246 0.0 0.0 0.00 0.01 0.01 64 1015.1
20260508015018 48 281 0.0 2.0 0.00 0.01 0.01 63 1015.1
20260508014514 48 281 2.0 3.0 0.00 0.01 0.01 61 1015.2
20260508014010 49 288 0.0 2.0 0.00 0.01 0.01 60 1015.1
20260508013507 49 308 0.0 1.0 0.00 0.01 0.01 62 1015.1
20260508013004 49 286 1.0 3.0 0.00 0.01 0.01 59 1015.1
20260508012501 49 302 1.0 3.0 0.00 0.01 0.01 60 1014.9
20260508011958 50 185 1.0 3.0 0.00 0.01 0.01 61 1014.9
20260508011456 50 283 1.0 7.0 0.00 0.01 0.01 59 1014.9
20260508010953 50 174 1.0 4.0 0.00 0.01 0.01 61 1015.0
20260508010450 49 304 2.0 4.0 0.00 0.01 0.01 63 1014.8
20260508005947 48 275 1.0 2.0 0.00 0.01 0.01 64 1014.8
20260508005444 48 117 0.0 0.0 0.00 0.01 0.01 68 1014.6
20260508004940 49 128 0.0 0.0 0.00 0.01 0.01 67 1014.8
20260508004436 50 284 0.0 2.0 0.00 0.01 0.01 61 1014.5
20260508003933 51 314 1.0 2.0 0.00 0.01 0.01 60 1014.5
20260508003430 51 155 4.0 6.0 0.00 0.01 0.01 56 1014.5
20260508002927 51 301 1.0 6.0 0.00 0.01 0.01 59 1014.3
20260508002424 51 295 3.0 4.0 0.00 0.01 0.01 57 1014.4
20260508001920 52 297 1.0 2.0 0.00 0.01 0.01 58 1014.0
20260508001417 52 292 2.0 4.0 0.00 0.01 0.01 57 1014.3
20260508000913 52 226 2.0 9.0 0.00 0.01 0.01 57 1013.9
20260508000412 52 277 5.0 10.0 0.00 0.01 0.01 54 1013.9
20260507235906 53 123 4.0 10.0 0.00 0.01 0.01 54 1014.2
20260507235403 53 300 1.0 3.0 0.00 0.01 0.01 54 1014.0
20260507234900 53 310 2.0 3.0 0.00 0.01 0.01 53 1014.0
20260507234359 54 200 1.0 2.0 0.00 0.01 0.01 51 1013.7
20260507233854 55 49 2.0 8.0 0.00 0.01 0.01 51 1013.7
20260507233351 55 237 1.0 4.0 0.00 0.01 0.01 51 1013.9
20260507232849 56 8 1.0 2.0 0.00 0.01 0.01 51 1013.7
20260507232345 57 260 1.0 3.0 0.00 0.01 0.01 51 1013.5
20260507231843 57 129 1.0 4.0 0.00 0.01 0.01 50 1013.4
20260507231339 57 306 1.0 10.0 0.00 0.01 0.01 52 1013.4
20260507230835 57 302 1.0 6.0 0.00 0.01 0.01 48 1013.6
20260507230333 57 275 1.0 13.0 0.00 0.01 0.01 48 1013.4
20260507225832 57 335 3.0 6.0 0.00 0.01 0.01 49 1013.3
20260507225329 57 175 3.0 13.0 0.00 0.01 0.01 50 1013.4
20260507224825 55 302 6.0 10.0 0.00 0.01 0.01 50 1013.3
20260507224322 56 307 1.0 2.0 0.00 0.01 0.01 50 1013.4
20260507223818 57 133 5.0 11.0 0.00 0.01 0.01 49 1013.1
20260507223314 58 291 2.0 11.0 0.00 0.01 0.01 49 1013.0
20260507222812 59 289 4.0 13.0 0.00 0.01 0.01 49 1013.0
20260507222308 59 294 2.0 8.0 0.00 0.01 0.01 47 1013.0
20260507221805 59 206 3.0 4.0 0.00 0.01 0.01 49 1013.1
20260507221301 59 324 2.0 4.0 0.00 0.01 0.01 49 1013.0
20260507220757 60 283 3.0 11.0 0.00 0.01 0.01 46 1012.9
20260507220256 60 308 3.0 6.0 0.00 0.01 0.01 48 1012.8
20260507215752 60 213 2.0 7.0 0.00 0.01 0.01 48 1012.4
20260507215250 61 284 5.0 8.0 0.00 0.01 0.01 52 1012.6
20260507214746 61 70 2.0 7.0 0.00 0.01 0.01 50 1012.5
20260507214244 60 35 2.0 7.0 0.00 0.01 0.01 49 1012.4
20260507213738 60 261 3.0 6.0 0.00 0.01 0.01 51 1012.4
20260507213236 61 298 3.0 11.0 0.00 0.01 0.01 49 1012.5
20260507212732 61 309 1.0 7.0 0.00 0.01 0.01 53 1012.4
20260507212229 60 33 4.0 13.0 0.00 0.01 0.01 53 1012.1
20260507211726 60 259 1.0 11.0 0.00 0.01 0.01 54 1012.2
20260507211222 59 322 10.0 13.0 0.00 0.01 0.01 57 1012.2
20260507210719 58 308 6.0 14.0 0.00 0.01 0.01 52 1011.9
20260507210216 58 107 6.0 9.0 0.00 0.01 0.01 56 1012.1
20260507205712 58 281 9.0 15.0 0.00 0.01 0.01 55 1012.1
20260507205209 58 315 6.0 14.0 0.00 0.01 0.01 56 1012.1
20260507204705 59 279 5.0 8.0 0.00 0.01 0.01 56 1011.9
20260507204203 61 309 3.0 7.0 0.00 0.01 0.01 55 1011.9
20260507203701 61 321 9.0 11.0 0.00 0.01 0.01 55 1012.1
20260507203158 61 311 4.0 15.0 0.00 0.01 0.01 55 1012.2
20260507202654 61 284 4.0 10.0 0.00 0.01 0.01 54 1012.0
20260507202150 59 268 4.0 10.0 0.00 0.01 0.01 55 1011.9
20260507201645 62 1 7.0 14.0 0.00 0.01 0.01 51 1012.0
20260507201142 63 246 3.0 7.0 0.00 0.01 0.01 52 1011.9
20260507200638 62 310 3.0 13.0 0.00 0.01 0.01 50 1012.1
20260507200134 62 296 5.0 9.0 0.00 0.01 0.01 53 1012.2
20260507195631 62 272 5.0 10.0 0.00 0.01 0.01 51 1011.9
20260507195128 62 290 2.0 7.0 0.00 0.01 0.01 52 1011.9
20260507194626 62 283 2.0 6.0 0.00 0.01 0.01 50 1011.9
20260507194120 62 57 1.0 4.0 0.00 0.01 0.01 50 1012.1
20260507193618 62 252 1.0 7.0 0.00 0.01 0.01 59 1012.1
20260507193115 62 278 2.0 8.0 0.00 0.01 0.01 54 1012.2
20260507192611 62 64 2.0 4.0 0.00 0.01 0.01 55 1012.1
20260507192108 62 147 4.0 9.0 0.00 0.01 0.01 54 1012.5
20260507191603 61 255 3.0 4.0 0.00 0.01 0.01 54 1012.4
20260507191101 61 130 2.0 3.0 0.00 0.01 0.01 58 1012.4
20260507190558 61 332 3.0 6.0 0.00 0.01 0.01 51 1012.7
20260507190057 61 0 2.0 4.0 0.00 0.01 0.01 54 1012.5
20260507185555 61 301 2.0 8.0 0.00 0.01 0.01 64 1012.6
20260507185051 58 192 6.0 18.0 0.00 0.01 0.01 61 1012.8
20260507184549 61 316 8.0 14.0 0.00 0.01 0.01 59 1012.7
20260507184047 61 309 2.0 4.0 0.00 0.01 0.01 59 1012.7
20260507183542 60 133 2.0 4.0 0.00 0.01 0.01 63 1012.7
20260507183040 56 79 0.0 4.0 0.00 0.01 0.01 63 1012.7
20260507182536 57 306 1.0 3.0 0.00 0.01 0.01 63 1012.7
20260507182032 57 282 0.0 2.0 0.00 0.01 0.01 62 1012.7
20260507181529 56 343 1.0 3.0 0.00 0.01 0.01 66 1012.5
20260507181025 56 299 2.0 4.0 0.00 0.01 0.01 65 1012.7
20260507180522 55 219 2.0 7.0 0.00 0.01 0.01 67 1012.9
20260507180019 56 234 2.0 6.0 0.00 0.01 0.01 69 1012.9
20260507175515 55 298 4.0 6.0 0.00 0.01 0.01 69 1012.8
20260507175013 56 289 4.0 6.0 0.00 0.01 0.01 69 1013.0
20260507174509 56 260 6.0 8.0 0.00 0.01 0.01 66 1012.9
20260507174007 56 301 0.0 1.0 0.00 0.01 0.01 67 1013.0
20260507173504 56 272 1.0 7.0 0.00 0.01 0.01 68 1013.1
20260507173001 56 340 4.0 7.0 0.00 0.01 0.01 68 1013.1
20260507172457 56 331 6.0 8.0 0.00 0.01 0.01 68 1013.1
20260507171954 56 352 0.0 3.0 0.00 0.01 0.01 68 1013.0
20260507171449 56 250 2.0 9.0 0.00 0.01 0.01 67 1013.2
20260507170947 57 304 2.0 8.0 0.00 0.01 0.01 69 1013.3
20260507170443 57 325 1.0 4.0 0.00 0.01 0.01 69 1013.3
20260507165940 57 334 1.0 4.0 0.00 0.01 0.01 66 1013.5
20260507165436 57 260 7.0 8.0 0.00 0.01 0.01 67 1013.3
20260507164932 58 310 1.0 2.0 0.00 0.01 0.01 62 1013.4
20260507164429 59 301 2.0 6.0 0.00 0.01 0.01 66 1013.4
20260507163926 60 215 2.0 4.0 0.00 0.01 0.01 62 1013.3
20260507163423 60 278 2.0 3.0 0.00 0.01 0.01 66 1013.4
20260507162920 60 334 3.0 6.0 0.00 0.01 0.01 58 1013.4
20260507162415 59 282 2.0 2.0 0.00 0.01 0.01 72 1013.6
20260507161913 59 307 7.0 9.0 0.00 0.01 0.01 66 1013.4
20260507161409 57 39 0.0 4.0 0.00 0.01 0.01 60 1013.7
20260507160906 57 273 1.0 1.0 0.00 0.01 0.01 65 1013.6
20260507160401 57 308 6.0 8.0 0.00 0.01 0.01 64 1013.7
20260507155858 58 324 9.0 10.0 0.00 0.01 0.01 66 1013.7
20260507155354 57 346 0.0 3.0 0.00 0.01 0.01 63 1014.0
20260507154851 55 275 4.0 9.0 0.00 0.01 0.01 67 1014.1
20260507154348 54 289 2.0 2.0 0.00 0.01 0.01 70 1014.3
20260507153845 54 288 3.0 9.0 0.00 0.01 0.01 65 1014.1
20260507153341 54 296 4.0 7.0 0.00 0.01 0.01 69 1014.0
20260507152838 54 0 0.0 3.0 0.00 0.01 0.01 69 1014.0
20260507152334 55 313 1.0 2.0 0.00 0.01 0.01 66 1014.1
20260507151830 56 317 1.0 4.0 0.00 0.01 0.01 69 1014.3
20260507151327 54 47 0.0 2.0 0.00 0.01 0.01 66 1014.1
20260507150824 53 302 5.0 6.0 0.00 0.01 0.01 69 1014.2
20260507150320 54 292 1.0 2.0 0.00 0.01 0.01 68 1014.2
20260507145816 53 306 1.0 2.0 0.00 0.01 0.01 69 1014.4
20260507145313 55 191 2.0 3.0 0.00 0.01 0.01 63 1014.5
20260507144810 56 83 1.0 2.0 0.00 0.01 0.01 74 1014.3
20260507144307 54 314 2.0 3.0 0.00 0.01 0.01 67 1014.4
20260507143804 53 275 1.0 6.0 0.00 0.01 0.01 70 1014.3
20260507143301 52 281 1.0 3.0 0.00 0.01 0.01 70 1014.3
20260507142757 53 308 5.0 9.0 0.00 0.01 0.01 72 1014.6
20260507142254 54 342 0.0 6.0 0.00 0.01 0.01 73 1014.5
20260507141750 53 350 1.0 2.0 0.00 0.01 0.01 73 1014.6
20260507141248 51 257 4.0 6.0 0.00 0.01 0.01 75 1014.6
20260507140743 51 220 1.0 2.0 0.00 0.01 0.01 73 1014.6
20260507140241 51 301 1.0 6.0 0.00 0.01 0.01 75 1014.9
20260507135738 51 300 2.0 6.0 0.00 0.01 0.01 72 1014.8
20260507135235 52 266 0.0 2.0 0.00 0.01 0.01 75 1014.9
20260507134731 51 297 2.0 3.0 0.00 0.01 0.01 78 1014.9
20260507134228 50 303 1.0 3.0 0.00 0.01 0.01 76 1014.8
20260507133724 50 300 3.0 6.0 0.00 0.01 0.01 76 1015.0
20260507133221 49 284 3.0 7.0 0.00 0.01 0.01 78 1015.1
20260507132718 49 229 0.0 3.0 0.00 0.01 0.01 78 1015.0
20260507132215 49 263 0.0 1.0 0.00 0.01 0.01 77 1015.1
20260507131712 49 256 2.0 4.0 0.00 0.01 0.01 77 1015.0
20260507131209 49 299 3.0 4.0 0.00 0.01 0.01 79 1014.9
20260507130706 49 321 2.0 3.0 0.00 0.01 0.01 78 1015.2
20260507130203 49 25 0.0 0.0 0.00 0.01 0.01 79 1015.1
20260507125702 49 277 0.0 1.0 0.00 0.01 0.01 79 1014.9
20260507125159 49 238 2.0 4.0 0.00 0.01 0.01 81 1014.9
20260507124655 49 295 4.0 7.0 0.00 0.01 0.01 80 1015.1
20260507124153 49 303 5.0 8.0 0.00 0.01 0.01 80 1015.1
20260507123651 49 295 4.0 6.0 0.00 0.01 0.01 80 1015.0
20260507123148 49 293 2.0 4.0 0.00 0.01 0.01 81 1014.9
20260507122643 48 321 5.0 6.0 0.00 0.01 0.01 81 1014.9
20260507122139 49 184 3.0 6.0 0.00 0.01 0.01 82 1014.9
20260507121635 49 316 6.0 7.0 0.00 0.01 0.01 84 1014.9
20260507121131 48 282 6.0 10.0 0.00 0.01 0.01 83 1014.8
20260507120628 48 307 3.0 7.0 0.00 0.01 0.01 85 1014.8
20260507120124 48 301 6.0 11.0 0.00 0.01 0.01 85 1014.6
20260507115621 49 332 1.0 10.0 0.00 0.01 0.01 85 1014.9
20260507115116 49 313 5.0 10.0 0.00 0.01 0.01 85 1014.7
20260507114612 49 296 3.0 10.0 0.00 0.01 0.01 86 1014.5
20260507114110 49 271 7.0 13.0 0.00 0.01 0.01 86 1014.6
20260507113607 49 291 6.0 9.0 0.00 0.01 0.01 87 1014.4
20260507113104 49 303 6.0 9.0 0.00 0.01 0.01 86 1014.1
20260507112602 49 309 7.0 11.0 0.00 0.01 0.01 87 1014.5
20260507112058 49 256 6.0 13.0 0.00 0.01 0.01 87 1014.2
20260507111555 49 317 4.0 9.0 0.00 0.01 0.01 86 1014.1
20260507111052 49 243 3.0 8.0 0.00 0.01 0.01 87 1014.3
20260507110548 49 297 2.0 9.0 0.00 0.01 0.01 87 1014.1
20260507110045 49 294 3.0 9.0 0.00 0.01 0.01 88 1014.2
20260507105542 50 329 2.0 6.0 0.00 0.01 0.01 88 1014.0
20260507105038 50 317 6.0 8.0 0.00 0.01 0.01 88 1014.2
20260507104535 50 307 1.0 6.0 0.00 0.01 0.01 89 1014.0
20260507104032 50 279 1.0 3.0 0.00 0.01 0.01 88 1013.9
20260507103528 50 309 2.0 4.0 0.00 0.01 0.01 87 1013.7
20260507103025 51 293 2.0 4.0 0.00 0.01 0.01 88 1013.7
20260507102521 50 306 2.0 6.0 0.00 0.01 0.01 88 1013.7
20260507102017 50 312 5.0 8.0 0.00 0.01 0.01 88 1013.5
20260507101513 51 318 3.0 7.0 0.00 0.01 0.01 87 1013.5
20260507101010 51 291 2.0 4.0 0.00 0.01 0.01 88 1013.4
20260507100507 51 293 4.0 4.0 0.00 0.01 0.01 89 1013.6
20260507100005 51 141 0.0 3.0 0.00 0.01 0.01 88 1014.0
20260507095503 51 149 1.0 7.0 0.00 0.01 0.01 89 1013.6
20260507094959 51 276 1.0 6.0 0.00 0.01 0.01 89 1013.7
20260507094455 51 262 3.0 3.0 0.00 0.01 0.01 89 1013.9
20260507093952 51 303 0.0 0.0 0.00 0.01 0.01 90 1013.7
20260507093450 51 323 0.0 0.0 0.00 0.01 0.01 90 1013.7
20260507092948 51 342 0.0 0.0 0.00 0.01 0.01 90 1013.6
20260507092444 51 300 0.0 0.0 0.00 0.01 0.01 90 1013.9
20260507091941 51 309 0.0 1.0 0.00 0.01 0.01 91 1013.7
20260507091438 51 287 0.0 0.0 0.00 0.01 0.01 92 1013.6
20260507090933 51 213 0.0 0.0 0.00 0.01 0.01 95 1013.5
20260507090430 51 134 0.0 0.0 0.00 0.01 0.01 94 1013.6
20260507085926 51 134 0.0 0.0 0.00 0.01 0.01 93 1013.6
20260507085424 51 137 0.0 0.0 0.00 0.01 0.01 92 1013.9
20260507084921 52 160 0.0 0.0 0.00 0.01 0.01 91 1013.6
20260507084417 52 283 0.0 1.0 0.00 0.01 0.01 88 1013.7
20260507083915 52 285 0.0 3.0 0.00 0.01 0.01 87 1013.5
20260507083411 51 287 3.0 3.0 0.00 0.01 0.01 90 1013.5
20260507082907 51 200 0.0 0.0 0.00 0.01 0.01 94 1013.7
20260507082403 51 133 0.0 0.0 0.00 0.01 0.01 95 1013.5
20260507081900 51 132 0.0 0.0 0.00 0.01 0.01 94 1013.7
20260507081356 51 151 0.0 0.0 0.00 0.01 0.01 95 1013.7
20260507080853 51 149 0.0 0.0 0.00 0.01 0.01 94 1013.6
20260507080349 51 143 0.0 0.0 0.00 0.01 0.01 94 1013.4
20260507075844 51 163 0.0 0.0 0.00 0.01 0.01 93 1013.4
20260507075341 52 164 0.0 0.0 0.00 0.01 0.01 92 1013.4
20260507074837 52 164 0.0 0.0 0.00 0.01 0.01 90 1013.5
20260507074335 52 298 1.0 2.0 0.00 0.01 0.01 90 1013.6
20260507073832 52 216 0.0 2.0 0.00 0.01 0.01 90 1013.6
20260507073329 52 300 1.0 2.0 0.00 0.01 0.01 90 1013.7